Regional Weather Roundup
Issued by NWS

Home | Current Version | Previous Version | Text Only | Print | Product List | Glossary Off
Versions: 1 2 3 4 5 6 7 8 9 10 11 12 13 14 15 16 17 18 19 20 21 22 23 24 25 26 27 28 29 30 31 32 33 34 35 36 37 38 39 40 41 42 43 44 45 46 47 48 49

000
ASUS45 KCYS 032310
RWRWY

WYOMING REGIONAL WEATHER ROUNDUP
NATIONAL WEATHER SERVICE CHEYENNE WY
500 PM MDT THU SEP 03 2015

NOTE:  "FAIR" INDICATES FEW OR NO CLOUDS BELOW 12,000 FEET
WITH NO SIGNIFICANT WEATHER AND/OR OBSTRUCTIONS TO VISIBILITY.

WYZ001-040000-
YELLOWSTONE NATIONAL PARK

CITY           SKY/WX    TMP DP  RH WIND       PRES   REMARKS
LK YELLOWSTONE   N/A     68  34  28 W8G24     30.03F
W YELLOWSTONE  NOT AVBL

$$
WYZ002>013-054>058-071-098>099-040000-
NORTHERN WYOMING

CITY           SKY/WX    TMP DP  RH WIND       PRES   REMARKS
JACKSON        FAIR      77  32  19 S15G21    29.92F
CODY           FAIR      72  43  35 NE12      29.82F
GREYBULL       FAIR      86  38  18 SE9       29.71F
WORLAND        FAIR      83  45  26 SW6       29.74F
SHERIDAN       FAIR      82  41  23 W12       29.75F
BUFFALO        FAIR      88  33  14 S15G23    29.82S
GILLETTE       FAIR      90  39  16 S8        29.77F
HULETT         FAIR      88  45  22 E5        29.81F
NEWCASTLE      FAIR      90  34  13 SE8       29.81F

$$
WYZ014>020-022>026-101>103-040000-
CENTRAL WYOMING

CITY           SKY/WX    TMP DP  RH WIND       PRES   REMARKS
BIG PINEY      FAIR      79  26  14 SW13G25   29.98F
PINEDALE       FAIR      77  27  15 SW13G23   29.99F
DUBOIS         MOCLDY    73  32  21 NW15G29   29.96S
LANDER         FAIR      83  31  15 SW9       29.86F
RIVERTON       FAIR      82  31  15 S13       29.87S
CASPER         FAIR      85  37  18 S12       29.87F
DOUGLAS        PTSUNNY   80  41  24 W20G30    29.88R

$$
WYZ021-027>030-104>119-040000-
SOUTHERN WYOMING

CITY           SKY/WX    TMP DP  RH WIND       PRES   REMARKS
EVANSTON       FAIR      76  26  15 SW23G33   30.01F
KEMMERER       FAIR      77  27  15 SW23G30   30.02S
FORT BRIDGER   CLEAR     81  27  13 W20G31    30.01F
ROCK SPRINGS   FAIR      75  31  19 S14G22    30.00F
DIXON          FAIR      74  46  37 E14       30.10F
RAWLINS        FAIR      73  40  30 SW21      30.04F
SARATOGA       MOCLDY    64  45  48 SE28G37   30.13R
LARAMIE        LGT RAIN  57  32  38 SW15      30.17R
CHEYENNE       FAIR      71  46  40 W17G24    30.03F
TORRINGTON     FAIR      84  44  24 S20       29.85S
PINE BLUFFS    MOCLDY    77  43  29 S12       29.97S

$$



USA.gov is the U.S. government's official web portal to all federal, state and local government web resources and services.